Find Local Weather

World > North America > United States > Ohio

Fairpoint, Ohio Regional Weather

Lat: 40.12N, Lon: 80.93W
Wx Zone: OHZ059
Warning FLW WEATHER ALERT - (More Info. Click Here) Warning
Feedback

Fairpoint, OH Regional Weather

Expires:201905251000;;428258
ASUS41 KCLE 250910
RWRCLE
OHIO REGIONAL WEATHER ROUNDUP
NATIONAL WEATHER SERVICE WILMINGTON, OH
500 AM EDT SAT MAY 25 2019

NOTE: "FAIR" INDICATES FEW OR NO CLOUDS BELOW 12,000 FEET WITH NO
SIGNIFICANT WEATHER AND/OR OBSTRUCTIONS TO VISIBILITY.


OHZ036-037-039>041-045>050-054>059-063>069-073>076-082>088-251000-
  CENTRAL AND SOUTHEAST OHIO
  
CITY           SKY/WX    TMP DP  RH WIND       PRES   REMARKS
COLUMBUS       FAIR      66  63  90 SE5       30.05F                  
OSU AIRPORT    FAIR      67  65  93 SE5       30.05S                  
BOLTON FIELD   FAIR      66  66  99 S5        30.06S FOG              
RICKENBACK AFB FAIR      63  63  99 CALM      30.05S                  
NEWARK         FAIR      61  60  97 CALM      30.05F FOG              
MARION         FAIR      66  63  90 S10       30.04F                  
LANCASTER      FAIR      64  63  96 S5        30.06F                  
ZANESVILLE     FAIR      63  59  87 CALM      30.07S                  
NEW PHILLY     FAIR      60  57  89 SE3       30.08S                  
$$
  

SKY/WX - Weather  TMP - Temperature  DP - Dew Point  RH - Relative Humidity
WIND - Wind Direction/Speed PRES - Barometric Pressure VSB - Visibility
WCI - Wind Chill Index E13G22 Wind - East Wind 13 mph/Gusts of 22 mph